Location: Rounton
(54.4000°N, 1.3500°W)
Time: 19:20:30
(UTC+00:00)

A-11 Canister half - Pass Details

Date: 02 December 2021
Orbit: 1516 x 1684 km, 47.2° (Epoch: 19 January)

Event Time Altitude Azimuth Distance (km) Brightness Sun altitude
Rises 10:02:13 0° 254° (WSW) 4,826 11.5 9.8°
Reaches altitude 10° 10:05:21 10° 251° (WSW) 3,862 11.1 10.0°
Maximum altitude 10:14:58 58° 176° (S) 1,892 10.2 10.6°
Drops below altitude 10° 10:24:48 10° 101° (ESE) 3,947 11.7 11.2°
Sets 10:28:02 0° 98° (E) 4,938 12.1 11.3°
